[[{"header":{"parameterUnit":"m.s-1","parameterCategory":1,"la1":30.2991,"la2":30.254,"lo1":-89.0895,"lo2":-89.0444,"dy":0.0017,"dx":0.0017,"nx":28,"ny":28,"refTime":"2024-04-13T09:00:00:Z","depth":0,"parameterNumber":2,"parameterNumberName":"U-component_of_WINDS"},"data":[0,0,0,0,0,0,0,0,0,0,0,0,0,0,0,0,0,0,0,0,0,0,0,0,0,0,0,0,0,0,0,0,0,0,0,0,0,0,0,0,0,0,0,0,0,0,0,0,0,0,0,0,0,0,0,0,0,0,-1.8183,-1.8182,0,-1.8151,-1.8151,-1.815,-1.8072,-1.807,-1.8068,-1.8067,-1.8036,-1.8036,-1.8037,0,0,0,0,0,0,0,0,0,0,0,0,0,-1.818,-1.818,-1.8183,-1.8182,-1.8182,-1.8151,-1.8151,-1.815,-1.8072,-1.807,-1.8068,-1.8066,-1.8035,-1.8036,-1.8037,0,0,0,0,0,0,0,0,0,0,0,0,0,-1.8168,-1.818,-1.8183,-1.8139,-1.8135,-1.8151,-1.8151,-1.815,-1.8072,-1.807,-1.8067,-1.8065,-1.8035,-1.8036,-1.8037,-1.8094,0,0,-1.8041,-1.8041,0,0,0,0,0,0,0,0,-1.8169,-1.8168,-1.8146,-1.8142,-1.8137,-1.8113,-1.8138,-1.8131,-1.8073,-1.8096,-1.8067,-1.8064,-1.8063,-1.8062,-1.8062,-1.8092,-1.8091,-1.8041,-1.8041,-1.8042,-1.8042,0,0,0,0,0,0,0,-1.8169,-1.8169,-1.817,-1.8146,-1.8141,-1.8122,-1.8118,-1.8136,-1.8094,-1.8094,-1.8088,-1.8085,-1.8061,-1.8061,-1.806,-1.8091,-1.8041,-1.8042,-1.8042,-1.8043,-1.8169,-1.8172,0,0,0,0,0,0,-1.8176,-1.817,-1.8171,-1.8169,-1.8147,-1.8124,-1.8119,-1.8123,-1.8094,-1.8087,-1.8087,-1.8082,-1.806,-1.8059,-1.8059,-1.8124,-1.8042,-1.8043,-1.8043,-1.8166,-1.817,-1.8173,0,0,0,0,0,0,-1.8176,-1.8177,-1.8172,-1.8168,-1.8166,-1.8127,-1.8132,-1.8124,-1.8124,-1.8089,-1.8081,-1.8095,-1.8058,-1.8057,-1.8086,-1.8122,-1.8043,-1.8044,-1.8163,-1.8167,-1.8171,-1.8255,0,0,0,0,0,0,-1.8177,-1.8178,-1.8197,-1.8169,-1.8167,-1.8199,-1.8134,-1.8125,-1.8126,-1.8118,-1.8094,-1.8088,-1.8056,-1.8085,-1.8087,-1.8122,-1.8045,-1.816,-1.8165,-1.817,-1.8249,-1.8262,-1.8273,0,0,0,0,0,-1.8177,-1.8222,-1.8199,-1.8199,-1.8191,-1.8202,-1.82,-1.8162,-1.8129,-1.8149,-1.8128,-1.8088,-1.8118,-1.8089,-1.8091,-1.8126,-1.8157,-1.8164,-1.817,-1.8244,-1.8259,-1.8272,0,0,0,0,0,0,-1.8255,-1.8218,-1.8191,-1.8229,-1.8219,-1.8188,-1.8212,-1.818,-1.818,-1.8172,-1.8126,-1.8122,-1.8158,-1.8145,-1.8113,-1.8181,-1.8132,-1.8138,-1.8188,-1.8202,-1.8213,-1.8215,-1.8046,0,0,0,0,0,-1.8277,-1.8288,-1.8255,-1.8291,-1.8288,-1.8252,-1.8255,-1.8227,-1.8215,-1.8211,-1.8191,-1.8182,-1.8189,-1.8195,-1.82,-1.8248,-1.8242,-1.8274,-1.8285,-1.8295,-1.8301,-1.8328,-1.8342,-1.8193,-1.8193,-1.8193,0,0,-1.8322,-1.8303,-1.8313,-1.8307,-1.8296,-1.831,-1.8248,-1.8265,-1.8275,-1.8213,-1.8239,-1.8225,-1.8212,-1.8252,-1.8268,-1.8242,-1.8342,-1.8303,-1.8311,-1.8312,-1.8336,-1.835,-1.8362,-1.8197,-1.8196,-1.8195,0,0,-1.8411,-1.8397,-1.8427,-1.8418,-1.8402,-1.8378,-1.8386,-1.8361,-1.8349,-1.8375,-1.8329,-1.8342,-1.8355,-1.8348,-1.8346,-1.8437,-1.8402,-1.844,-1.8501,-1.8527,-1.8539,-1.8549,-1.8583,-1.8595,-1.8446,-1.8447,-1.8447,0,-1.8469,-1.8487,-1.8446,-1.8466,-1.8466,-1.8412,-1.8442,-1.8436,-1.8423,-1.8425,-1.8397,-1.8414,-1.8401,-1.8439,-1.8462,-1.8462,-1.847,-1.8442,-1.854,-1.855,-1.8559,-1.8591,-1.8603,-1.8451,-1.8451,-1.845,-1.845,0,-1.8559,-1.8573,-1.8599,-1.8588,-1.8591,-1.8617,-1.8582,-1.859,-1.8563,-1.8543,-1.8571,-1.8554,-1.8556,-1.8563,-1.8536,-1.8598,-1.8583,-1.8548,-1.8498,-1.8579,-1.8608,-1.8619,-1.8458,-1.8457,-1.8455,-1.8454,0,0,-1.8694,-1.8663,-1.8673,-1.8669,-1.865,-1.866,-1.8685,-1.8686,-1.8694,-1.8689,-1.8709,-1.8723,-1.8692,-1.869,-1.8663,-1.8687,-1.8761,-1.8649,-1.8648,-1.8671,-1.883,-1.8856,-1.8871,-1.8738,-1.874,-1.8742,-1.8832,0,-1.8778,-1.8816,-1.8782,-1.8828,-1.8841,-1.8791,-1.8813,-1.8805,-1.8787,-1.8797,-1.8778,-1.879,-1.8747,-1.8746,-1.8767,-1.8748,-1.8793,-1.8741,-1.8758,-1.8759,-1.8762,-1.8885,-1.8912,-1.8997,-1.8842,-1.8844,-1.8846,0,-1.888,-1.8879,-1.8927,-1.8907,-1.8911,-1.8931,-1.8931,-1.8941,-1.8931,-1.8917,-1.8918,-1.8885,-1.8909,-1.8861,-1.8895,-1.8861,-1.8866,-1.8859,-1.8861,-1.886,-1.8807,-1.8889,-1.9023,-1.9036,-1.8863,-1.8861,-1.886,0,-1.8975,-1.8986,-1.9016,-1.9014,-1.8991,-1.9007,-1.8998,-1.8986,-1.8991,-1.8991,-1.8994,-1.8998,-1.9,-1.9005,-1.8975,-1.8942,-1.9014,-1.8962,-1.9004,-1.9005,-1.902,-1.9019,-1.9158,-1.9024,-1.9024,-1.9024,-1.9024,0,-1.9071,-1.9102,-1.9058,-1.9077,-1.9111,-1.9073,-1.9108,-1.9095,-1.9086,-1.9102,-1.906,-1.9076,-1.9036,-1.9049,-1.9026,-1.9059,-1.906,-1.9051,-1.9044,-1.9054,-1.9056,-1.9056,-1.905,-1.9027,-1.9027,-1.9026,-1.9025,0,-1.9182,-1.9153,-1.9183,-1.916,-1.9156,-1.9182,-1.9163,-1.918,-1.9161,-1.9183,-1.9186,-1.9157,-1.917,-1.9141,-1.9151,-1.9135,-1.9182,-1.9166,-1.9185,-1.918,-1.9224,-1.922,-1.9367,-1.9385,-1.9241,-1.9242,-1.9243,0,-1.9245,-1.9268,-1.9248,-1.9256,-1.925,-1.9263,-1.9268,-1.9232,-1.9239,-1.9232,-1.9251,-1.9261,-1.9267,-1.9291,-1.9271,-1.9279,-1.9263,-1.9315,-1.9264,-1.9275,-1.9265,-1.9264,-1.9267,-1.9325,-1.9326,-1.9328,-1.9329,0,-1.9361,-1.9347,-1.9354,-1.9358,-1.9364,-1.9366,-1.9364,-1.9373,-1.9336,-1.9346,-1.9359,-1.9364,-1.9375,-1.9386,-1.939,-1.9383,-1.9351,-1.9345,-1.9355,-1.9366,-1.9376,-1.9372,-1.9213,-1.9342,-1.934,-1.9339,-1.9339,-1.9338,-1.945,-1.9469,-1.9458,-1.9469,-1.9465,-1.9465,-1.948,-1.9464,-1.9475,-1.948,-1.9459,-1.9478,-1.9471,-1.9473,-1.947,-1.9485,-1.9462,-1.9477,-1.948,-1.9485,-1.9492,-1.9374,-1.9486,-1.9485,-1.9485,-1.9485,-1.9484,0,-1.9564,-1.9556,-1.9566,-1.9565,-1.9575,-1.9544,-1.9542,-1.9552,-1.9568,-1.9564,-1.9572,-1.9589,-1.9601,-1.9583,-1.9592,-1.9608,-1.9594,-1.9612,-1.961,-1.9609,-1.9511,-1.9502,-1.9623,-1.9623,-1.9623,-1.9623,-1.9623,-1.9623,-1.9624,-1.9655,-1.964,-1.9669,-1.9661,-1.9679,-1.968,-1.9681,-1.9678,-1.9699,-1.9708,-1.9697,-1.9689,-1.9697,-1.9707,-1.9702,-1.9708,-1.9731,-1.9721,-1.963,-1.9616,-1.9603,-1.9594,-1.9733,-1.9733,-1.9817,-1.9818,-1.9819]},{"header":{"parameterUnit":"m.s-1","parameterCategory":1,"la1":30.2991,"la2":30.254,"lo1":-89.0895,"lo2":-89.0444,"dy":0.0017,"dx":0.0017,"nx":28,"ny":28,"refTime":"2024-04-13T09:00:00:Z","depth":0,"parameterNumber":3,"parameterNumberName":"V-component_of_WINDS"},"data":[0,0,0,0,0,0,0,0,0,0,0,0,0,0,0,0,0,0,0,0,0,0,0,0,0,0,0,0,0,0,0,0,0,0,0,0,0,0,0,0,0,0,0,0,0,0,0,0,0,0,0,0,0,0,0,0,0,0,2.334,2.3341,0,2.3351,2.3351,2.3352,2.337,2.3371,2.3371,2.3371,2.3379,2.3379,2.3379,0,0,0,0,0,0,0,0,0,0,0,0,0,2.3334,2.3334,2.334,2.3341,2.3341,2.3351,2.3351,2.3352,2.337,2.3371,2.3371,2.3371,2.3379,2.3379,2.3379,0,0,0,0,0,0,0,0,0,0,0,0,0,2.334,2.3334,2.334,2.3351,2.3352,2.3351,2.3352,2.3352,2.337,2.3371,2.3371,2.3372,2.3379,2.3379,2.3379,2.3367,0,0,2.3378,2.3378,0,0,0,0,0,0,0,0,2.3339,2.334,2.335,2.3351,2.3352,2.336,2.3352,2.3357,2.337,2.3363,2.3371,2.3372,2.3372,2.3373,2.3373,2.3367,2.3368,2.3378,2.3378,2.3378,2.3378,0,0,0,0,0,0,0,2.3339,2.334,2.3345,2.335,2.3351,2.3355,2.3357,2.3353,2.3364,2.3364,2.3365,2.3366,2.3373,2.3373,2.3374,2.3368,2.3378,2.3378,2.3378,2.3378,2.3354,2.3353,0,0,0,0,0,0,2.3337,2.3339,2.3344,2.3345,2.3347,2.3355,2.3356,2.3357,2.3365,2.3366,2.3366,2.3367,2.3374,2.3374,2.3374,2.3361,2.3378,2.3378,2.3378,2.3354,2.3353,2.3353,0,0,0,0,0,0,2.3337,2.3338,2.3344,2.3342,2.3344,2.3354,2.3355,2.3357,2.3357,2.3366,2.3368,2.3365,2.3374,2.3374,2.3369,2.3361,2.3378,2.3378,2.3355,2.3354,2.3353,2.3335,0,0,0,0,0,0,2.3337,2.3337,2.3333,2.3342,2.3344,2.3339,2.3354,2.3357,2.3357,2.3359,2.3365,2.3367,2.3374,2.3369,2.3369,2.3362,2.3378,2.3355,2.3354,2.3353,2.3336,2.3333,2.3331,0,0,0,0,0,2.3336,2.3327,2.3333,2.3333,2.3339,2.3339,2.3339,2.3349,2.3357,2.3353,2.3358,2.3367,2.3363,2.3369,2.3368,2.3361,2.3356,2.3355,2.3354,2.3337,2.3334,2.3331,0,0,0,0,0,0,2.3315,2.3328,2.3335,2.3328,2.3332,2.3342,2.3337,2.3345,2.3346,2.3348,2.3359,2.336,2.3354,2.3357,2.3363,2.335,2.3361,2.3359,2.3348,2.3345,2.3343,2.3342,2.3377,0,0,0,0,0,2.331,2.3309,2.332,2.3313,2.3315,2.3326,2.3326,2.3333,2.3338,2.3339,2.3345,2.3348,2.3347,2.3347,2.3347,2.3337,2.3338,2.3332,2.3329,2.3327,2.3325,2.3321,2.3318,2.3349,2.3349,2.3349,0,0,2.3298,2.3305,2.3304,2.3309,2.3313,2.3312,2.3327,2.3325,2.3324,2.3338,2.3334,2.3338,2.3343,2.3335,2.3332,2.3338,2.3318,2.3326,2.3324,2.3323,2.3319,2.3317,2.3314,2.3348,2.3348,2.3348,0,0,2.3276,2.3282,2.3277,2.3281,2.3288,2.3295,2.3294,2.3303,2.3307,2.3303,2.3314,2.3313,2.3312,2.3315,2.3316,2.3298,2.3305,2.3297,2.3284,2.3279,2.3277,2.3275,2.3268,2.3265,2.3296,2.3296,2.3296,0,2.3261,2.326,2.3273,2.327,2.3272,2.3288,2.3282,2.3285,2.3291,2.3292,2.3298,2.3298,2.3302,2.3296,2.3292,2.3292,2.3291,2.3296,2.3276,2.3274,2.3273,2.3266,2.3264,2.3295,2.3295,2.3295,2.3295,0,2.3241,2.324,2.3235,2.3242,2.3244,2.324,2.3251,2.3251,2.3259,2.3265,2.3262,2.3267,2.3269,2.3268,2.3275,2.3263,2.3267,2.3275,2.3285,2.3268,2.3263,2.326,2.3293,2.3294,2.3294,2.3294,0,0,2.3204,2.322,2.3217,2.3221,2.323,2.323,2.3227,2.323,2.323,2.3234,2.3231,2.3231,2.3239,2.324,2.3248,2.3244,2.3229,2.3253,2.3253,2.3248,2.3216,2.321,2.3207,2.3235,2.3235,2.3234,2.3216,0,2.3184,2.318,2.3192,2.3185,2.3185,2.32,2.3198,2.3203,2.3209,2.321,2.3217,2.3216,2.3227,2.3228,2.3225,2.3232,2.3223,2.3233,2.3232,2.3232,2.3229,2.3204,2.3196,2.3179,2.3214,2.3213,2.3213,0,2.3159,2.3163,2.3157,2.3168,2.3168,2.3166,2.317,2.3171,2.3177,2.3182,2.3185,2.3194,2.3192,2.3203,2.3199,2.3206,2.3206,2.321,2.3209,2.3209,2.3221,2.3202,2.3173,2.3171,2.321,2.321,2.321,0,2.3133,2.3137,2.3134,2.3136,2.3149,2.3147,2.3152,2.3159,2.3161,2.3165,2.3166,2.3168,2.317,2.3172,2.3182,2.3189,2.3177,2.3189,2.318,2.318,2.3176,2.3176,2.3146,2.3177,2.3178,2.3178,2.3178,0,2.3108,2.3103,2.3122,2.312,2.3115,2.3129,2.3124,2.3131,2.3137,2.3136,2.315,2.3148,2.3162,2.3162,2.317,2.3166,2.3166,2.317,2.3172,2.3168,2.3168,2.3168,2.3169,2.3177,2.3177,2.3177,2.3177,0,2.3077,2.3089,2.3087,2.31,2.3103,2.3099,2.311,2.3108,2.3117,2.3116,2.3116,2.3128,2.313,2.314,2.3143,2.3148,2.3141,2.3146,2.3139,2.314,2.3131,2.3131,2.31,2.3096,2.313,2.313,2.313,0,2.306,2.3057,2.307,2.3072,2.3076,2.3078,2.308,2.3094,2.3095,2.3104,2.3101,2.3103,2.3106,2.3107,2.3116,2.3118,2.3122,2.3111,2.3123,2.312,2.3122,2.3122,2.3121,2.3108,2.3108,2.3108,2.3107,0,2.3029,2.3035,2.3039,2.3044,2.3047,2.3051,2.3057,2.3057,2.3072,2.3073,2.3075,2.3078,2.3082,2.3084,2.3088,2.3093,2.3102,2.3104,2.3102,2.3098,2.3094,2.3096,2.3132,2.3104,2.3105,2.3105,2.3105,2.3105,2.3004,2.3002,2.3012,2.3015,2.3021,2.3026,2.3026,2.3035,2.3037,2.3042,2.305,2.3051,2.3059,2.3066,2.307,2.307,2.3076,2.3073,2.3072,2.3071,2.3069,2.3095,2.3071,2.3071,2.3072,2.3072,2.3072,0,2.2973,2.298,2.2983,2.2991,2.2994,2.3005,2.3012,2.3013,2.3014,2.3021,2.3024,2.3026,2.3029,2.3039,2.3042,2.3041,2.3045,2.3041,2.3041,2.3042,2.3064,2.3065,2.3038,2.3038,2.3038,2.3038,2.3038,2.3038,2.2957,2.2955,2.2963,2.2964,2.2971,2.2973,2.2976,2.2981,2.2987,2.299,2.2993,2.3,2.3008,2.3012,2.3015,2.3018,2.3018,2.3012,2.3016,2.3037,2.304,2.3043,2.3044,2.3012,2.3012,2.2994,2.2994,2.2994]}]]